Dewpoint
50 43 40 31 15 18 7 5 15 8 8 12 16 14 14 20 33 30 61 65 66 67 70 70 70 72 71 70 70 70 71 70 71 72 72 72 72 72 71 71 72 72 71 70 69 70 70 69 68
40 41 33 27 5 0 -3 15 8 12 11 16 15 15 17 19 48 57 61 65 66 68 69 70 71 71 71 70 70 71 71 71 71 71 72 72 72 72 71 71 72 72 71 70 69 69 69 69 68
39 36 25 23 13 -1 -5 8 13 14 16 17 14 14 14 20 50 57 62 66 67 68 69 70 71 71 71 71 71 71 71 71 71 71 71 71 72 72 71 71 72 71 71 70 69 69 69 68 68
36 35 30 17 12 16 8 12 16 16 19 16 15 17 18 31 53 59 65 67 67 68 69 70 71 71 71 71 71 71 70 70 70 71 71 71 71 72 71 71 72 71 71 70 70 70 68 68 68
33 31 18 19 18 19 20 19 19 20 19 19 20 17 17 30 59 63 65 66 66 68 69 70 70 71 71 71 71 71 70 70 70 70 71 71 71 72 71 71 71 70 71 70 70 69 68 68 68
23 30 19 12 14 19 21 22 20 20 21 19 19 18 16 50 60 64 66 66 67 67 69 69 70 70 70 70 70 70 70 70 70 70 70 71 71 71 71 70 71 70 70 70 70 68 68 68 68
16 24 20 22 21 21 21 22 22 21 19 21 20 17 20 42 60 63 64 65 66 67 68 69 69 70 70 69 69 70 70 70 70 70 70 70 70 70 70 70 70 69 69 69 69 67 67 68 68
22 24 24 23 20 19 24 26 25 22 22 23 22 17 21 36 59 64 63 64 65 66 67 67 68 69 69 69 69 69 69 69 69 70 69 69 69 69 69 69 69 68 67 69 68 67 67 67 67
33 24 22 21 23 22 27 27 28 27 28 26 25 22 23 50 63 63 62 63 64 65 65 66 66 67 68 68 69 69 69 69 69 70 69 69 69 69 69 69 68 67 67 68 68 67 67 67 67
28 27 21 26 25 25 28 27 27 26 25 24 25 26 25 48 58 61 61 60 61 62 64 65 65 65 66 67 68 68 69 69 69 69 69 69 68 68 68 68 68 67 66 67 67 67 66 66 65
21 22 25 26 28 26 24 24 24 23 22 23 22 22 23 22 36 56 60 62 62 62 63 64 65 65 66 66 67 66 66 68 67 67 67 68 68 67 67 67 67 66 65 65 66 66 65 65 65
19 22 22 23 25 22 20 20 21 22 22 22 23 23 23 22 22 31 54 58 60 63 63 64 65 65 65 66 65 65 65 67 66 66 65 67 67 66 66 66 66 64 64 63 63 63 63 64 64
19 22 22 21 22 23 23 22 21 20 22 22 21 20 20 21 20 20 27 38 54 61 63 64 65 65 65 65 65 64 65 65 65 65 65 67 67 66 65 65 65 64 63 62 62 62 63 63 64
21 18 19 20 20 18 18 17 19 18 19 18 18 18 19 20 19 19 20 21 27 45 61 65 64 64 65 65 64 64 64 64 64 64 65 66 66 65 65 64 64 63 63 62 62 62 62 63 63
22 22 22 22 21 21 21 16 17 18 17 15 13 14 14 16 17 19 18 19 20 27 45 63 65 65 64 64 64 64 64 63 63 64 65 65 66 65 64 64 63 63 63 62 61 61 62 62 63
19 20 18 20 19 20 16 15 14 16 13 13 14 15 14 14 15 15 18 19 20 22 31 55 65 65 64 64 64 64 64 63 63 64 64 64 65 64 64 64 63 62 62 62 61 61 61 61 61
19 15 18 18 19 19 16 14 14 13 13 14 15 15 14 14 15 16 17 17 18 19 22 32 60 65 65 64 64 63 64 64 64 64 64 64 65 64 64 64 63 62 62 62 61 61 61 60 60
13 17 18 17 16 15 12 11 12 13 14 15 15 14 14 14 15 16 17 17 17 18 20 23 42 64 66 65 65 64 64 64 64 64 64 64 64 64 64 63 63 63 62 61 61 61 61 59 59
16 15 14 13 12 12 10 11 12 13 14 14 14 13 14 16 17 33 45 47 40 26 21 23 30 58 65 65 64 63 63 63 64 64 64 64 64 63 63 63 62 62 61 61 61 61 60 59 60
11 11 12 13 14 12 13 14 15 15 15 15 15 16 17 36 45 46 45 46 47 49 48 39 34 53 64 64 64 64 63 64 64 64 64 64 64 63 63 62 62 62 62 61 61 60 59 59 60
16 14 15 16 17 16 15 14 14 17 16 18 27 35 45 45 44 44 44 45 46 47 47 48 50 52 63 64 64 63 63 63 63 63 63 63 64 63 63 62 62 62 62 60 60 60 59 58 59
14 18 17 18 17 14 16 12 14 16 17 19 42 44 42 41 42 43 42 43 43 45 45 47 49 52 60 64 63 61 61 60 61 62 62 63 64 63 63 62 62 62 61 60 60 60 59 58 57
15 17 17 16 16 17 16 15 15 15 14 36 42 40 40 39 39 39 40 40 41 42 43 45 46 49 55 63 63 62 61 60 60 62 62 62 62 63 62 62 61 61 61 60 60 59 59 59 58
19 17 17 18 18 14 14 14 11 13 31 38 41 41 39 37 36 36 37 38 38 39 41 44 45 47 52 63 63 62 60 60 60 61 61 61 61 61 61 61 61 61 61 60 60 60 59 59 58
17 17 13 11 13 11 19 15 14 30 39 40 40 39 37 36 34 34 34 34 35 36 39 41 43 45 49 61 63 62 61 60 60 60 60 60 60 60 60 60 60 60 61 60 60 59 59 58 57
13 19 16 11 12 15 18 13 17 38 39 38 39 38 36 34 33 33 33 33 33 35 37 40 41 44 48 60 62 62 62 60 59 60 60 59 59 60 60 60 60 60 60 60 59 58 58 58 57
14 20 24 21 21 19 18 19 35 38 38 39 38 36 34 33 32 31 32 32 33 34 36 38 41 43 48 62 60 62 60 59 59 59 59 59 58 58 59 59 59 59 59 58 59 58 58 58 57
13 11 10 22 15 12 14 18 19 33 35 35 35 34 33 31 31 30 30 31 32 34 35 37 40 42 46 52 61 60 59 59 58 58 58 58 58 58 58 58 58 58 58 58 58 58 59 58 59
11 8 14 26 24 17 15 19 35 34 35 35 34 33 32 30 29 29 29 30 31 33 34 35 38 41 44 47 55 59 58 58 58 58 58 58 57 57 57 57 57 56 56 56 56 56 55 56 56
17 23 25 16 13 21 21 18 36 36 35 34 33 32 29 28 28 28 28 29 30 31 32 33 36 38 41 44 50 58 58 58 57 57 57 57 56 56 56 55 55 55 54 54 54 54 55 54 55
Wind_Speed
2 3 3 5 1 2 6 9 2 6 3 3 7 9 17 8 7 5 7 12 14 21 19 21 21 19 20 21 21 20 18 18 21 22 22 23 23 22 21 21 19 18 18 17 15 15 14 14 14
2 3 6 4 3 9 12 6 15 11 6 16 11 7 6 10 5 3 9 12 18 22 19 19 20 17 17 19 20 20 19 18 19 21 23 23 23 21 20 20 19 19 19 17 16 16 15 15 16
6 5 3 5 5 16 11 8 8 3 12 7 8 6 7 5 6 6 6 18 14 18 17 16 18 17 18 17 18 18 17 17 18 19 20 22 22 20 20 20 20 19 18 18 17 16 14 16 15
4 3 5 4 17 10 13 2 2 12 6 3 4 15 7 8 2 4 13 18 19 17 17 18 21 20 19 18 19 19 17 17 17 18 19 19 20 20 19 20 20 20 19 17 16 16 17 16 17
5 4 3 6 12 10 10 8 7 12 13 12 6 14 11 7 3 7 16 19 23 17 16 18 22 21 20 19 18 17 17 17 17 17 18 19 19 19 19 19 19 20 18 16 16 16 17 17 18
4 4 4 17 15 7 10 6 8 6 8 11 10 12 6 13 7 7 9 14 12 19 16 19 24 24 22 22 21 19 17 16 16 16 17 18 18 19 19 19 18 18 17 16 17 16 17 18 18
6 6 6 5 8 7 5 4 9 5 5 6 9 11 9 15 10 2 11 11 10 9 11 13 15 18 22 23 23 21 19 18 17 17 17 17 18 19 19 19 18 17 17 18 18 19 19 19 19
5 4 5 8 9 16 6 4 2 4 6 13 6 6 19 15 6 9 5 9 9 9 9 13 12 10 12 15 21 22 21 20 18 17 17 17 17 18 19 19 18 18 18 19 19 19 19 19 19
4 4 9 9 10 7 2 4 3 4 11 7 4 8 10 10 5 5 2 2 6 7 7 11 12 12 11 10 14 18 20 20 19 18 17 16 13 15 17 16 18 18 18 19 19 19 19 19 17
7 7 12 9 12 7 12 6 13 6 12 16 21 15 9 3 1 4 6 9 11 14 13 12 13 14 11 9 10 12 13 14 15 14 14 13 13 13 13 15 18 19 19 19 19 19 18 16 13
6 10 7 6 9 6 11 19 5 10 14 15 21 26 23 16 7 7 10 8 9 6 11 17 15 14 16 15 13 12 12 12 15 16 15 13 12 12 12 13 14 14 16 14 15 13 13 12 13
9 8 12 8 15 15 15 16 15 11 16 20 23 21 18 20 16 13 11 17 14 9 13 9 10 14 15 13 14 14 14 14 16 16 16 14 12 13 13 13 12 13 12 14 12 12 12 11 11
13 11 14 16 17 16 17 18 20 15 17 19 16 17 17 17 16 14 14 13 12 18 18 17 12 14 14 15 14 15 16 16 16 16 18 15 14 15 13 12 11 12 11 12 13 12 12 11 11
2 6 12 8 12 10 17 20 7 10 15 13 15 16 17 15 18 17 17 20 18 20 19 20 25 21 15 17 16 15 16 17 17 16 18 19 17 15 13 12 12 11 12 11 12 14 12 10 11
6 9 9 11 12 13 10 6 14 17 12 12 10 13 14 15 16 17 19 21 21 23 26 21 25 25 24 22 21 18 17 17 18 17 17 22 18 16 15 13 13 11 10 12 10 9 9 9 10
4 3 6 4 2 4 5 11 7 10 4 13 23 20 19 18 16 19 18 21 21 21 22 22 22 24 28 26 23 20 19 19 18 17 17 19 19 16 16 14 13 12 11 12 12 13 11 12 13
1 10 7 8 9 8 6 3 4 24 19 18 19 21 22 22 22 20 20 20 20 20 22 23 23 25 28 27 24 22 17 17 16 15 17 18 18 18 16 16 13 14 11 13 13 12 15 14 12
6 6 4 7 7 19 22 24 17 18 15 21 19 21 23 23 23 22 21 18 20 21 20 24 22 24 25 23 20 18 17 18 15 17 17 18 17 18 17 16 15 14 13 13 13 15 14 13 11
6 9 14 11 21 11 25 26 19 19 12 19 22 20 20 23 18 18 17 19 21 19 19 21 23 25 22 23 23 22 24 22 20 18 20 21 19 18 18 16 16 16 16 16 16 14 16 12 14
10 12 16 12 17 7 20 32 22 19 17 13 16 20 18 11 15 17 21 21 17 17 20 18 18 21 23 23 24 20 23 20 21 17 17 21 22 22 20 18 17 17 15 17 17 15 11 10 17
14 11 13 15 13 8 15 22 10 6 7 9 9 8 11 13 17 19 21 23 21 18 17 17 18 19 23 25 21 9 12 8 11 16 18 19 22 23 22 19 17 17 16 17 17 18 15 15 12
17 14 18 15 7 9 2 20 13 5 1 6 9 11 12 15 15 15 20 21 22 21 16 16 18 18 22 24 24 27 25 23 19 23 22 21 22 23 22 20 19 19 16 17 18 16 18 14 16
8 10 12 11 10 9 8 6 13 18 8 3 5 9 11 14 16 19 21 23 24 21 20 17 20 20 20 25 28 30 28 24 15 18 24 22 20 22 20 20 19 18 16 15 17 18 18 16 15
8 3 8 1 4 12 13 14 25 9 2 3 4 8 12 14 17 17 18 21 24 24 22 20 21 23 21 24 28 29 32 24 19 20 22 21 20 19 20 20 19 16 16 17 15 15 17 15 12
11 2 3 4 6 12 7 9 21 6 4 2 3 9 14 16 18 21 24 26 27 29 26 22 22 26 24 23 27 26 23 22 25 25 24 22 21 19 22 21 19 16 16 16 16 15 15 16 17
3 1 3 7 4 7 6 9 6 3 3 7 7 8 12 16 15 20 21 24 25 26 26 26 29 27 27 19 24 21 20 17 17 20 17 18 20 21 22 19 18 16 15 15 14 12 15 16 19
3 1 1 5 5 9 7 6 3 4 5 1 8 14 16 17 20 20 22 22 26 27 28 25 27 26 27 17 18 16 15 18 19 22 20 19 18 16 19 18 19 16 15 14 12 13 16 15 16
6 5 3 1 6 10 9 7 7 6 12 14 13 14 16 18 21 24 22 24 24 24 25 27 26 28 26 19 10 13 15 14 14 15 18 17 15 17 19 19 18 15 12 12 14 12 11 13 13
4 0 1 2 4 6 8 4 5 9 8 8 10 11 13 17 21 22 24 24 24 24 24 24 23 23 22 21 11 13 13 15 14 15 14 16 16 16 17 16 15 15 15 12 10 9 10 10 11
4 3 2 3 3 5 4 9 4 4 8 12 13 14 15 16 19 21 22 24 25 25 25 25 25 26 25 23 17 6 16 13 13 15 15 15 17 15 17 16 16 15 13 11 10 9 8 10 15
Wind_Direction
17 35 69 46 176 47 241 237 246 249 262 173 305 298 278 270 237 240 327 164 145 149 157 158 165 166 163 156 150 146 147 144 136 133 133 136 140 145 149 150 148 148 148 147 145 146 149 149 142
64 39 51 90 172 226 256 238 232 230 267 321 311 335 331 274 237 269 137 195 163 153 157 159 166 168 166 154 151 149 151 149 143 139 136 139 141 145 148 147 147 149 150 153 154 154 155 153 147
111 62 129 163 189 224 255 221 245 261 305 309 333 298 292 276 304 204 221 161 151 152 152 154 162 168 165 156 150 149 151 149 147 145 142 141 142 147 150 148 149 150 154 161 163 162 157 154 147
122 64 57 222 233 246 237 139 11 331 351 357 336 309 308 256 238 263 144 143 147 150 151 159 168 173 168 160 154 153 155 153 152 150 148 148 149 152 157 156 156 158 159 164 166 160 161 158 151
48 81 166 231 252 254 264 279 296 304 304 300 329 313 298 289 294 147 160 152 157 153 155 165 173 172 169 162 157 156 158 160 157 156 154 155 156 158 162 163 165 161 164 169 163 163 162 157 154
111 109 183 232 248 265 278 237 258 271 279 296 354 320 288 344 325 142 150 150 152 160 165 171 178 176 170 165 162 162 163 166 165 164 163 162 161 163 165 168 166 166 173 168 167 164 162 163 160
167 145 217 221 258 287 264 258 230 283 299 305 333 329 302 346 4 51 141 128 138 149 167 176 180 180 173 169 167 168 171 171 174 174 175 171 169 170 171 173 175 176 178 169 170 172 169 167 164
137 159 185 215 225 259 251 298 3 7 303 330 5 340 325 323 338 91 59 116 135 141 163 180 182 179 178 177 176 174 175 174 180 183 184 180 179 179 178 180 184 183 180 174 173 175 174 170 168
132 222 220 221 197 236 225 349 302 268 288 307 268 291 284 316 89 86 79 98 140 162 171 176 186 188 187 181 183 182 178 180 183 187 187 187 183 190 188 187 190 188 183 178 179 179 177 174 168
192 206 222 212 222 258 296 312 298 312 305 297 303 309 298 305 192 216 238 243 200 200 195 186 192 189 182 183 182 186 191 184 183 186 186 187 186 192 190 193 193 194 189 182 184 183 177 167 161
202 237 225 233 238 253 285 289 251 269 280 277 294 295 300 315 292 220 226 238 246 267 212 198 192 190 177 183 185 190 198 189 185 186 183 185 184 188 191 192 195 194 190 180 183 172 162 172 163
234 236 240 263 251 266 257 274 281 247 259 263 273 276 289 291 293 279 236 231 235 238 225 232 215 191 186 182 188 190 193 193 190 190 188 178 187 190 190 192 190 188 185 184 176 175 170 171 166
237 247 253 255 263 263 266 257 258 273 264 268 273 287 279 281 280 271 265 278 257 220 218 220 207 213 199 187 191 194 198 196 200 194 197 186 190 197 188 189 185 185 181 182 179 173 174 175 168
240 240 272 274 268 267 264 263 218 258 275 262 286 285 288 284 281 286 274 260 255 251 244 213 201 203 200 203 195 198 197 200 196 201 200 193 195 193 190 183 191 187 183 178 174 179 174 180 167
272 293 293 263 260 251 259 263 244 257 276 293 290 287 286 286 292 274 271 259 252 244 239 213 209 198 193 198 200 197 199 199 200 198 201 199 191 191 185 182 192 191 178 167 165 168 166 178 168
301 282 287 305 325 262 164 281 224 307 328 310 308 301 298 290 279 284 273 265 261 249 242 236 216 199 199 195 201 200 198 195 201 195 192 197 192 183 177 182 188 185 169 178 179 178 183 190 182
312 265 270 299 270 284 239 304 300 310 296 290 286 289 292 294 298 283 276 273 266 257 248 242 227 208 207 199 196 200 198 199 196 197 185 191 189 183 186 187 181 169 175 185 187 179 187 193 197
233 241 251 264 303 301 291 282 271 275 279 281 275 279 289 294 291 290 299 297 289 272 249 247 234 219 210 203 198 195 194 198 195 196 188 182 189 187 182 192 182 170 183 192 184 186 186 191 196
257 267 270 270 276 289 287 286 288 286 281 283 292 294 291 292 318 345 2 4 354 325 279 250 235 222 205 203 200 203 204 199 198 199 188 178 185 187 186 190 183 182 189 197 188 192 187 186 178
258 268 282 286 272 214 281 288 285 279 276 267 286 300 311 345 356 351 351 350 357 344 347 321 261 228 210 204 205 201 203 211 201 197 196 181 184 184 188 185 184 182 184 187 188 189 191 189 178
246 242 260 260 295 283 286 292 270 269 250 287 353 33 28 9 353 347 349 339 336 344 337 327 314 280 215 206 196 182 164 157 181 199 197 192 183 185 187 183 180 183 183 190 191 193 193 190 185
261 225 243 261 297 286 163 293 290 232 102 297 13 32 12 360 352 351 344 336 333 326 328 332 320 308 248 200 195 197 199 193 196 195 202 195 188 183 182 181 183 185 182 187 190 191 195 192 186
241 252 258 264 268 284 195 214 280 325 343 89 33 17 15 7 357 350 347 338 327 327 327 335 323 306 290 209 200 194 197 205 196 188 186 192 179 177 175 177 180 184 180 182 186 194 197 203 196
307 264 273 259 199 259 219 195 277 302 263 279 341 10 10 4 357 351 349 343 334 328 326 347 327 320 313 223 205 201 200 190 173 181 187 183 180 177 177 174 179 180 185 183 189 196 198 202 213
20 87 284 264 200 244 137 202 254 289 299 244 355 11 10 6 3 356 353 346 337 330 330 347 331 320 314 241 211 205 205 189 188 183 185 179 178 181 182 172 177 182 186 185 185 193 199 199 209
321 13 204 250 237 291 321 263 256 176 84 61 62 36 16 1 2 356 351 343 333 329 327 344 339 321 318 255 217 205 199 187 178 176 182 186 188 181 170 168 170 170 176 180 188 190 211 208 212
343 48 307 267 275 265 248 266 240 143 34 70 39 21 7 2 346 354 349 346 332 334 336 344 331 330 327 235 216 187 177 172 174 174 175 177 181 163 160 158 164 168 177 186 191 204 208 212 217
83 326 319 274 273 256 260 250 255 6 351 349 14 10 359 357 350 354 350 342 339 338 341 339 341 338 323 343 185 180 173 169 169 167 170 168 162 156 158 162 162 167 182 186 194 194 199 207 213
347 175 213 238 242 260 278 289 33 13 353 347 4 7 11 358 357 346 346 343 341 344 346 341 339 337 337 342 332 154 152 148 155 158 160 162 151 155 159 160 158 173 179 178 187 204 219 232 248
150 118 112 198 261 288 278 269 67 37 26 13 5 360 9 12 1 351 348 344 347 348 350 348 347 344 345 335 330 161 140 145 156 152 154 154 142 159 154 154 161 167 171 177 196 218 231 249 254